Weather History for Burlington, IA

Change the Weather History Date:

Saturday, August 16, 2014

  Actual Average Record
Temperature  
Mean Temperature 70 °F 75 °F  
Max Temperature 73 °F 85 °F 102 °F (1913)
Min Temperature 67 °F 66 °F 53 °F (1964)
Degree Days  
Heating Degree Days 0 0  
Month to date heating degree days 0 0  
Since 1 June heating degree days 9 14  
Since 1 July heating degree days 7 1  
Cooling Degree Days 5 10  
Month to date cooling degree days 94 174  
Year to date cooling degree days 669 903  
Since 1 June cooling degree days 531 800  
Growing Degree Days 20 (Base 50)    
Moisture  
Dew Point 67 °F    
Average Humidity 88    
Maximum Humidity 97    
Minimum Humidity 79    
Precipitation  
Precipitation 0.08 in 0.15 in 1.12 in (1993)
Month to date precipitation 1.30 2.13  
Year to date precipitation 24.16 25.11  
Sea Level Pressure  
Sea Level Pressure 29.88 in    
Wind  
Wind Speed 8 mph (ESE)    
Max Wind Speed 20 mph    
Max Gust Speed 24 mph    
Visibility 8 miles    
Events Rain    
T = Trace of Precipitation, MM = Missing Value Source: NWS Daily Summary

Daily Weather History Graph

Daily Weather History Graph

Search for Another Location

Airport:

Trip Planner

Search our weather history database for the weather conditions in past years. The results will help you decide how hot, cold, wet, or windy it might be!

Date:

Astronomy

Aug. 16, 2014 Rise Set
Actual Time 6:15 AM CDT 8:01 PM CDT
Civil Twilight 5:46 AM CDT 8:30 PM CDT
Nautical Twilight 5:10 AM CDT 9:05 PM CDT
Astronomical Twilight 4:32 AM CDT 9:43 PM CDT
Moon 11:42 PM CDT (8/16) 1:04 PM CDT (8/16)
Length of Visible Light 14h 44m
Length of Day
13h 45m
Waning Gibbous, 58% of the Moon is Illuminated
Aug 16
Waning Gibbous
Aug 17
Last Quarter
Aug 25
New
Sep 2
First Quarter
Sep 8
Full

Hourly Weather History & Observations

Time (CDT) Temp. Dew Point Humidity Pressure Visibility Wind Dir Wind Speed Gust Speed Precip Events Conditions
12:53 AM 68.0 °F 66.0 °F 93% 29.91 in 10.0 mi East 4.6 mph - N/A   Mostly Cloudy
1:53 AM 68.0 °F 66.0 °F 93% 29.91 in 10.0 mi SE 3.5 mph - N/A   Mostly Cloudy
2:53 AM 68.0 °F 66.0 °F 93% 29.89 in 9.0 mi SSE 3.5 mph - N/A   Partly Cloudy
3:53 AM 69.1 °F 66.9 °F 93% 29.89 in 10.0 mi SSE 4.6 mph - N/A   Clear
4:53 AM 69.1 °F 66.9 °F 93% 29.88 in 10.0 mi SSE 4.6 mph - N/A   Mostly Cloudy
5:16 AM 69.1 °F 66.9 °F 93% 29.90 in 10.0 mi SE 3.5 mph - N/A   Mostly Cloudy
5:53 AM 69.1 °F 66.9 °F 93% 29.88 in 10.0 mi Variable 4.6 mph - 0.00 in   Overcast
6:23 AM 69.1 °F 66.9 °F 93% 29.90 in 10.0 mi South 6.9 mph - 0.00 in Rain Light Rain
6:40 AM 69.1 °F 66.9 °F 93% 29.89 in 10.0 mi South 6.9 mph - 0.00 in   Overcast
6:53 AM 69.1 °F 66.9 °F 93% 29.88 in 10.0 mi South 6.9 mph - 0.00 in   Overcast
7:18 AM 69.1 °F 66.9 °F 93% 29.89 in 10.0 mi SE 6.9 mph - N/A   Overcast
7:30 AM 69.1 °F 66.9 °F 93% 29.89 in 10.0 mi SE 6.9 mph - N/A   Mostly Cloudy
7:42 AM 69.1 °F 66.9 °F 93% 29.88 in 10.0 mi SE 6.9 mph - N/A   Mostly Cloudy
7:50 AM 69.8 °F 66.2 °F 88% 29.88 in 10.0 mi SE 8.1 mph - N/A   Scattered Clouds
7:53 AM 69.1 °F 66.9 °F 93% 29.87 in 10.0 mi SE 6.9 mph - N/A   Scattered Clouds
8:17 AM 70.0 °F 66.9 °F 90% 29.91 in 10.0 mi ESE 3.5 mph - N/A   Mostly Cloudy
8:43 AM 70.0 °F 66.9 °F 90% 29.90 in 10.0 mi SE 5.8 mph - N/A   Overcast
8:53 AM 70.0 °F 68.0 °F 93% 29.89 in 10.0 mi SSE 6.9 mph - N/A   Overcast
9:20 AM 71.1 °F 66.9 °F 87% 29.89 in 10.0 mi South 10.4 mph - N/A   Overcast
9:53 AM 71.1 °F 66.0 °F 84% 29.88 in 10.0 mi South 10.4 mph - N/A   Overcast
10:53 AM 73.0 °F 66.9 °F 81% 29.89 in 10.0 mi South 16.1 mph 20.7 mph N/A   Mostly Cloudy
11:53 AM 70.0 °F 66.0 °F 87% 29.88 in 9.0 mi South 12.7 mph - N/A   Overcast
12:46 PM 69.1 °F 66.9 °F 93% 29.89 in 5.0 mi SE 6.9 mph - 0.00 in   Overcast
12:53 PM 69.1 °F 66.9 °F 93% 29.88 in 5.0 mi ESE 9.2 mph - 0.00 in   Overcast
12:58 PM 69.1 °F 66.9 °F 93% 29.89 in 5.0 mi ESE 9.2 mph - N/A   Overcast
1:34 PM 69.1 °F 66.9 °F 93% 29.88 in 4.0 mi SE 9.2 mph - 0.00 in Rain Light Rain
1:53 PM 69.1 °F 66.9 °F 93% 29.87 in 8.0 mi ESE 9.2 mph - 0.01 in   Overcast
2:10 PM 69.1 °F 66.9 °F 93% 29.88 in 3.0 mi SE 9.2 mph - 0.00 in Rain Light Rain
2:53 PM 69.1 °F 66.9 °F 93% 29.86 in 3.0 mi ESE 9.2 mph - 0.00 in   Overcast
3:01 PM 69.1 °F 66.9 °F 93% 29.87 in 3.0 mi ESE 9.2 mph - 0.00 in Rain Light Rain
3:10 PM 69.1 °F 66.9 °F 93% 29.87 in 4.0 mi SE 6.9 mph - 0.00 in Rain Light Rain
3:33 PM 69.1 °F 66.9 °F 93% 29.87 in 2.0 mi ESE 9.2 mph - 0.03 in Rain Rain
3:53 PM 69.1 °F 66.9 °F 93% 29.86 in 2.5 mi ESE 9.2 mph - 0.06 in Rain Light Rain
4:01 PM 69.1 °F 68.0 °F 96% 29.87 in 4.0 mi ESE 8.1 mph - 0.00 in Rain Light Rain
4:11 PM 69.1 °F 68.0 °F 96% 29.86 in 4.0 mi ESE 9.2 mph - 0.00 in Rain Light Rain
4:53 PM 70.0 °F 68.0 °F 93% 29.86 in 8.0 mi SE 9.2 mph - 0.00 in   Overcast
5:53 PM 69.1 °F 66.9 °F 93% 29.86 in 9.0 mi SE 8.1 mph - N/A   Overcast
6:53 PM 69.1 °F 66.9 °F 93% 29.85 in 9.0 mi East 5.8 mph - N/A   Overcast
7:53 PM 69.1 °F 66.9 °F 93% 29.86 in 8.0 mi East 5.8 mph - N/A   Overcast
8:42 PM 69.1 °F 66.9 °F 93% 29.87 in 9.0 mi ENE 6.9 mph - N/A   Overcast
8:53 PM 69.1 °F 66.0 °F 90% 29.86 in 10.0 mi NE 8.1 mph - N/A   Overcast
9:11 PM 69.1 °F 66.0 °F 90% 29.87 in 10.0 mi ENE 6.9 mph - N/A   Overcast
9:53 PM 69.1 °F 66.0 °F 90% 29.88 in 10.0 mi East 5.8 mph - N/A   Overcast
10:09 PM 69.1 °F 66.0 °F 90% 29.89 in 10.0 mi East 6.9 mph - N/A   Overcast
10:27 PM 69.1 °F 66.0 °F 90% 29.89 in 10.0 mi East 6.9 mph - N/A   Overcast
10:49 PM 69.8 °F 66.2 °F 88% 29.89 in 9.0 mi East 6.9 mph - N/A   Overcast
10:53 PM 69.1 °F 66.9 °F 93% 29.88 in 8.0 mi East 6.9 mph - N/A   Overcast
11:53 PM 69.1 °F 66.9 °F 93% 29.88 in 7.0 mi NE 5.8 mph - N/A   Overcast